owner,sensor,date,latitude,longitude,vertical_datum,mass_concentration_of_oxygen_in_sea_water,qcFlag 
DISL,ioos:station:DISL:PPTA:1,2013-04-01T00:00:00Z,30.2791,-87.5561,1.278,8.18,1111122 
DISL,ioos:station:DISL:PPTA:1,2013-04-01T00:30:00Z,30.2791,-87.5561,1.255,8.06,1111122 
DISL,ioos:station:DISL:PPTA:1,2013-04-01T01:00:00Z,30.2791,-87.5561,1.235,8.09,1111122 
DISL,ioos:station:DISL:PPTA:1,2013-04-01T01:30:00Z,30.2791,-87.5561,1.219,8.17,1111122 
DISL,ioos:station:DISL:PPTA:1,2013-04-01T02:00:00Z,30.2791,-87.5561,1.192,7.92,1111122 
DISL,ioos:station:DISL:PPTA:1,2013-04-01T02:30:00Z,30.2791,-87.5561,1.228,7.99,1111122 
DISL,ioos:station:DISL:PPTA:1,2013-04-01T03:00:00Z,30.2791,-87.5561,1.179,8.01,1111122 
DISL,ioos:station:DISL:PPTA:1,2013-04-01T03:30:00Z,30.2791,-87.5561,1.169,8.1,1111122 
DISL,ioos:station:DISL:PPTA:1,2013-04-01T04:00:00Z,30.2791,-87.5561,1.172,8.11,1111122 
DISL,ioos:station:DISL:PPTA:1,2013-04-01T04:30:00Z,30.2791,-87.5561,1.173,7.95,1111122 
DISL,ioos:station:DISL:PPTA:1,2013-04-01T05:00:00Z,30.2791,-87.5561,1.156,8.09,1111122 
DISL,ioos:station:DISL:PPTA:1,2013-04-01T05:30:00Z,30.2791,-87.5561,1.159,8.14,1111122 
DISL,ioos:station:DISL:PPTA:1,2013-04-01T06:00:00Z,30.2791,-87.5561,1.157,8.09,1111122 
DISL,ioos:station:DISL:PPTA:1,2013-04-01T06:30:00Z,30.2791,-87.5561,1.14,8.29,1111122 
DISL,ioos:station:DISL:PPTA:1,2013-04-01T07:00:00Z,30.2791,-87.5561,1.151,8.28,1111122 
DISL,ioos:station:DISL:PPTA:1,2013-04-01T07:30:00Z,30.2791,-87.5561,1.137,8.14,1111122 
DISL,ioos:station:DISL:PPTA:1,2013-04-01T08:00:00Z,30.2791,-87.5561,1.151,8.11,1111122 
DISL,ioos:station:DISL:PPTA:1,2013-04-01T08:30:00Z,30.2791,-87.5561,1.173,8.11,1111122 
DISL,ioos:station:DISL:PPTA:1,2013-04-01T09:00:00Z,30.2791,-87.5561,1.169,7.7,1111122 
DISL,ioos:station:DISL:PPTA:1,2013-04-01T09:30:00Z,30.2791,-87.5561,1.157,7.73,1111122 
DISL,ioos:station:DISL:PPTA:1,2013-04-01T10:00:00Z,30.2791,-87.5561,1.151,7.51,1111122 
DISL,ioos:station:DISL:PPTA:1,2013-04-01T10:30:00Z,30.2791,-87.5561,1.193,7.52,1111122 
DISL,ioos:station:DISL:PPTA:1,2013-04-01T11:00:00Z,30.2791,-87.5561,1.186,7.59,1111122 
DISL,ioos:station:DISL:PPTA:1,2013-04-01T11:30:00Z,30.2791,-87.5561,1.158,6.79,1111122 
DISL,ioos:station:DISL:PPTA:1,2013-04-01T12:00:00Z,30.2791,-87.5561,1.221,7.37,1111122 
DISL,ioos:station:DISL:PPTA:1,2013-04-01T12:30:00Z,30.2791,-87.5561,1.254,7.55,1111122 
DISL,ioos:station:DISL:PPTA:1,2013-04-01T13:00:00Z,30.2791,-87.5561,1.255,7.41,1111122 
DISL,ioos:station:DISL:PPTA:1,2013-04-01T13:30:00Z,30.2791,-87.5561,1.271,7.42,1111122 
DISL,ioos:station:DISL:PPTA:1,2013-04-01T14:00:00Z,30.2791,-87.5561,1.305,7.35,1111122 
DISL,ioos:station:DISL:PPTA:1,2013-04-01T14:30:00Z,30.2791,-87.5561,1.312,7.5,1111122 
DISL,ioos:station:DISL:PPTA:1,2013-04-01T15:00:00Z,30.2791,-87.5561,1.326,7.6,1111122 
DISL,ioos:station:DISL:PPTA:1,2013-04-01T15:30:00Z,30.2791,-87.5561,1.351,7.54,1111122 
DISL,ioos:station:DISL:PPTA:1,2013-04-01T16:00:00Z,30.2791,-87.5561,1.36,7.76,1111122 
DISL,ioos:station:DISL:PPTA:1,2013-04-01T16:30:00Z,30.2791,-87.5561,1.379,7.63,1111122 
DISL,ioos:station:DISL:PPTA:1,2013-04-01T17:00:00Z,30.2791,-87.5561,1.396,7.76,1111122 
DISL,ioos:station:DISL:PPTA:1,2013-04-01T17:30:00Z,30.2791,-87.5561,1.406,7.8,1111122 
DISL,ioos:station:DISL:PPTA:1,2013-04-01T18:00:00Z,30.2791,-87.5561,1.406,7.89,1111122 
DISL,ioos:station:DISL:PPTA:1,2013-04-01T18:30:00Z,30.2791,-87.5561,1.421,7.77,1111122 
DISL,ioos:station:DISL:PPTA:1,2013-04-01T19:00:00Z,30.2791,-87.5561,1.412,7.88,1111122 
DISL,ioos:station:DISL:PPTA:1,2013-04-01T19:30:00Z,30.2791,-87.5561,1.404,7.76,1111122 
DISL,ioos:station:DISL:PPTA:1,2013-04-01T20:00:00Z,30.2791,-87.5561,1.398,8.19,1111122 
DISL,ioos:station:DISL:PPTA:1,2013-04-01T20:30:00Z,30.2791,-87.5561,1.391,8.06,1111122 
DISL,ioos:station:DISL:PPTA:1,2013-04-01T21:00:00Z,30.2791,-87.5561,1.407,8.0,1111122 
DISL,ioos:station:DISL:PPTA:1,2013-04-01T21:30:00Z,30.2791,-87.5561,1.372,8.1,1111122 
DISL,ioos:station:DISL:PPTA:1,2013-04-01T22:00:00Z,30.2791,-87.5561,1.346,8.1,1111122 
DISL,ioos:station:DISL:PPTA:1,2013-04-01T22:30:00Z,30.2791,-87.5561,1.349,8.01,1111122 
DISL,ioos:station:DISL:PPTA:1,2013-04-01T23:00:00Z,30.2791,-87.5561,1.324,7.86,1111122 
DISL,ioos:station:DISL:PPTA:1,2013-04-01T23:30:00Z,30.2791,-87.5561,1.33,8.01,1111122 
DISL,ioos:station:DISL:PPTA:1,2013-04-02T00:00:00Z,30.2791,-87.5561,1.302,7.96,1111122 
DISL,ioos:station:DISL:PPTA:1,2013-04-02T00:30:00Z,30.2791,-87.5561,1.282,8.17,1111122 
DISL,ioos:station:DISL:PPTA:1,2013-04-02T01:00:00Z,30.2791,-87.5561,1.268,8.21,1111122 
DISL,ioos:station:DISL:PPTA:1,2013-04-02T01:30:00Z,30.2791,-87.5561,1.234,8.05,1111122 
DISL,ioos:station:DISL:PPTA:1,2013-04-02T02:00:00Z,30.2791,-87.5561,1.213,7.94,1111122 
DISL,ioos:station:DISL:PPTA:1,2013-04-02T02:30:00Z,30.2791,-87.5561,1.2,7.82,1111122 
DISL,ioos:station:DISL:PPTA:1,2013-04-02T03:00:00Z,30.2791,-87.5561,1.179,7.93,1111122 
DISL,ioos:station:DISL:PPTA:1,2013-04-02T03:30:00Z,30.2791,-87.5561,1.165,7.75,1111122 
DISL,ioos:station:DISL:PPTA:1,2013-04-02T04:00:00Z,30.2791,-87.5561,1.15,7.93,1111122 
DISL,ioos:station:DISL:PPTA:1,2013-04-02T04:30:00Z,30.2791,-87.5561,1.132,7.82,1111122 
DISL,ioos:station:DISL:PPTA:1,2013-04-02T05:00:00Z,30.2791,-87.5561,1.115,7.72,1111122 
DISL,ioos:station:DISL:PPTA:1,2013-04-02T05:30:00Z,30.2791,-87.5561,1.099,7.86,1111122 
DISL,ioos:station:DISL:PPTA:1,2013-04-02T06:00:00Z,30.2791,-87.5561,1.093,7.8,1111122 
DISL,ioos:station:DISL:PPTA:1,2013-04-02T06:30:00Z,30.2791,-87.5561,1.091,7.76,1111122 
DISL,ioos:station:DISL:PPTA:1,2013-04-02T07:00:00Z,30.2791,-87.5561,1.076,7.93,1111122 
DISL,ioos:station:DISL:PPTA:1,2013-04-02T07:30:00Z,30.2791,-87.5561,1.069,7.94,1111122 
DISL,ioos:station:DISL:PPTA:1,2013-04-02T08:00:00Z,30.2791,-87.5561,1.066,7.89,1111122 
DISL,ioos:station:DISL:PPTA:1,2013-04-02T08:30:00Z,30.2791,-87.5561,1.065,7.93,1111122 
DISL,ioos:station:DISL:PPTA:1,2013-04-02T09:00:00Z,30.2791,-87.5561,1.078,7.23,1111122 
DISL,ioos:station:DISL:PPTA:1,2013-04-02T09:30:00Z,30.2791,-87.5561,1.093,8.29,1111122 
DISL,ioos:station:DISL:PPTA:1,2013-04-02T10:00:00Z,30.2791,-87.5561,1.11,8.05,1111122 
DISL,ioos:station:DISL:PPTA:1,2013-04-02T10:30:00Z,30.2791,-87.5561,1.102,7.44,1111122 
DISL,ioos:station:DISL:PPTA:1,2013-04-02T11:00:00Z,30.2791,-87.5561,1.106,7.44,1111122 
DISL,ioos:station:DISL:PPTA:1,2013-04-02T11:30:00Z,30.2791,-87.5561,1.122,7.57,1111122 
DISL,ioos:station:DISL:PPTA:1,2013-04-02T12:00:00Z,30.2791,-87.5561,1.117,7.25,1111122 
DISL,ioos:station:DISL:PPTA:1,2013-04-02T12:30:00Z,30.2791,-87.5561,1.137,6.79,1111122 
DISL,ioos:station:DISL:PPTA:1,2013-04-02T13:00:00Z,30.2791,-87.5561,1.16,6.91,1111122 
DISL,ioos:station:DISL:PPTA:1,2013-04-02T13:30:00Z,30.2791,-87.5561,1.173,7.13,1111122 
DISL,ioos:station:DISL:PPTA:1,2013-04-02T14:00:00Z,30.2791,-87.5561,1.183,7.13,1111122 
DISL,ioos:station:DISL:PPTA:1,2013-04-02T14:30:00Z,30.2791,-87.5561,1.196,7.03,1111122 
DISL,ioos:station:DISL:PPTA:1,2013-04-02T15:00:00Z,30.2791,-87.5561,1.215,7.04,1111122 
DISL,ioos:station:DISL:PPTA:1,2013-04-02T15:30:00Z,30.2791,-87.5561,1.227,7.06,1111122 
DISL,ioos:station:DISL:PPTA:1,2013-04-02T16:00:00Z,30.2791,-87.5561,1.261,7.19,1111122 
DISL,ioos:station:DISL:PPTA:1,2013-04-02T16:30:00Z,30.2791,-87.5561,1.285,7.26,1111122 
DISL,ioos:station:DISL:PPTA:1,2013-04-02T17:00:00Z,30.2791,-87.5561,1.312,7.66,1111122 
DISL,ioos:station:DISL:PPTA:1,2013-04-02T17:30:00Z,30.2791,-87.5561,1.317,7.65,1111122 
DISL,ioos:station:DISL:PPTA:1,2013-04-02T18:00:00Z,30.2791,-87.5561,1.329,7.33,1111122 
DISL,ioos:station:DISL:PPTA:1,2013-04-02T18:30:00Z,30.2791,-87.5561,1.341,7.64,1111122 
DISL,ioos:station:DISL:PPTA:1,2013-04-02T19:00:00Z,30.2791,-87.5561,1.349,7.42,1111122 
DISL,ioos:station:DISL:PPTA:1,2013-04-02T19:30:00Z,30.2791,-87.5561,1.358,7.64,1111122 
DISL,ioos:station:DISL:PPTA:1,2013-04-02T20:00:00Z,30.2791,-87.5561,1.352,7.75,1111122 
DISL,ioos:station:DISL:PPTA:1,2013-04-02T20:30:00Z,30.2791,-87.5561,1.348,7.65,1111122 
DISL,ioos:station:DISL:PPTA:1,2013-04-02T21:00:00Z,30.2791,-87.5561,1.346,7.45,1111122 
DISL,ioos:station:DISL:PPTA:1,2013-04-02T21:30:00Z,30.2791,-87.5561,1.362,7.53,1111122 
DISL,ioos:station:DISL:PPTA:1,2013-04-02T22:00:00Z,30.2791,-87.5561,1.365,7.56,1111122 
DISL,ioos:station:DISL:PPTA:1,2013-04-02T22:30:00Z,30.2791,-87.5561,1.372,7.59,1111122 
DISL,ioos:station:DISL:PPTA:1,2013-04-02T23:00:00Z,30.2791,-87.5561,1.352,7.57,1111122 
DISL,ioos:station:DISL:PPTA:1,2013-04-02T23:30:00Z,30.2791,-87.5561,1.313,7.54,1111122 
DISL,ioos:station:DISL:PPTA:1,2013-04-03T00:00:00Z,30.2791,-87.5561,1.308,7.58,1111122 
DISL,ioos:station:DISL:PPTA:1,2013-04-03T00:30:00Z,30.2791,-87.5561,1.286,7.9,1111122 
DISL,ioos:station:DISL:PPTA:1,2013-04-03T01:00:00Z,30.2791,-87.5561,1.28,7.63,1111122 
DISL,ioos:station:DISL:PPTA:1,2013-04-03T01:30:00Z,30.2791,-87.5561,1.263,7.65,1111122 
DISL,ioos:station:DISL:PPTA:1,2013-04-03T02:00:00Z,30.2791,-87.5561,1.258,7.39,1111122 
DISL,ioos:station:DISL:PPTA:1,2013-04-03T02:30:00Z,30.2791,-87.5561,1.242,7.47,1111122 
DISL,ioos:station:DISL:PPTA:1,2013-04-03T03:00:00Z,30.2791,-87.5561,1.218,7.57,1111122 
DISL,ioos:station:DISL:PPTA:1,2013-04-03T03:30:00Z,30.2791,-87.5561,1.21,7.66,1111122 
DISL,ioos:station:DISL:PPTA:1,2013-04-03T04:00:00Z,30.2791,-87.5561,1.183,7.62,1111122 
DISL,ioos:station:DISL:PPTA:1,2013-04-03T04:30:00Z,30.2791,-87.5561,1.181,7.72,1111122 
DISL,ioos:station:DISL:PPTA:1,2013-04-03T05:00:00Z,30.2791,-87.5561,1.173,7.33,1111122 
DISL,ioos:station:DISL:PPTA:1,2013-04-03T05:30:00Z,30.2791,-87.5561,1.146,7.36,1111122 
DISL,ioos:station:DISL:PPTA:1,2013-04-03T06:00:00Z,30.2791,-87.5561,1.152,7.34,1111122 
DISL,ioos:station:DISL:PPTA:1,2013-04-03T06:30:00Z,30.2791,-87.5561,1.129,7.43,1111122 
DISL,ioos:station:DISL:PPTA:1,2013-04-03T07:00:00Z,30.2791,-87.5561,1.137,7.58,1111122 
DISL,ioos:station:DISL:PPTA:1,2013-04-03T07:30:00Z,30.2791,-87.5561,1.132,7.53,1111122 
DISL,ioos:station:DISL:PPTA:1,2013-04-03T08:00:00Z,30.2791,-87.5561,1.131,7.33,1111122 
DISL,ioos:station:DISL:PPTA:1,2013-04-03T08:30:00Z,30.2791,-87.5561,1.142,7.66,1111122 
DISL,ioos:station:DISL:PPTA:1,2013-04-03T09:00:00Z,30.2791,-87.5561,1.139,7.54,1111122 
DISL,ioos:station:DISL:PPTA:1,2013-04-03T09:30:00Z,30.2791,-87.5561,1.16,7.36,1111122 
DISL,ioos:station:DISL:PPTA:1,2013-04-03T10:00:00Z,30.2791,-87.5561,1.176,7.76,1111122 
DISL,ioos:station:DISL:PPTA:1,2013-04-03T10:30:00Z,30.2791,-87.5561,1.153,7.53,1111122 
DISL,ioos:station:DISL:PPTA:1,2013-04-03T11:00:00Z,30.2791,-87.5561,1.16,7.44,1111122 
DISL,ioos:station:DISL:PPTA:1,2013-04-03T11:30:00Z,30.2791,-87.5561,1.171,7.01,1111122 
DISL,ioos:station:DISL:PPTA:1,2013-04-03T12:00:00Z,30.2791,-87.5561,1.166,6.88,1111122 
DISL,ioos:station:DISL:PPTA:1,2013-04-03T12:30:00Z,30.2791,-87.5561,1.217,7.17,1111122 
DISL,ioos:station:DISL:PPTA:1,2013-04-03T13:00:00Z,30.2791,-87.5561,1.211,6.89,1111122 
DISL,ioos:station:DISL:PPTA:1,2013-04-03T13:30:00Z,30.2791,-87.5561,1.191,7.44,1111122 
DISL,ioos:station:DISL:PPTA:1,2013-04-03T14:00:00Z,30.2791,-87.5561,1.196,7.38,1111122 
DISL,ioos:station:DISL:PPTA:1,2013-04-03T14:30:00Z,30.2791,-87.5561,1.257,7.18,1111122 
DISL,ioos:station:DISL:PPTA:1,2013-04-03T15:00:00Z,30.2791,-87.5561,1.297,7.5,1111122 
DISL,ioos:station:DISL:PPTA:1,2013-04-03T15:30:00Z,30.2791,-87.5561,1.357,7.35,1111122 
DISL,ioos:station:DISL:PPTA:1,2013-04-03T16:00:00Z,30.2791,-87.5561,1.32,7.2,1111122 
DISL,ioos:station:DISL:PPTA:1,2013-04-03T16:30:00Z,30.2791,-87.5561,1.325,7.16,1111122 
DISL,ioos:station:DISL:PPTA:1,2013-04-03T17:00:00Z,30.2791,-87.5561,1.346,7.29,1111122 
DISL,ioos:station:DISL:PPTA:1,2013-04-03T17:30:00Z,30.2791,-87.5561,1.374,7.27,1111122 
DISL,ioos:station:DISL:PPTA:1,2013-04-03T18:00:00Z,30.2791,-87.5561,1.341,7.25,1111122 
DISL,ioos:station:DISL:PPTA:1,2013-04-03T18:30:00Z,30.2791,-87.5561,1.333,7.24,1111122 
DISL,ioos:station:DISL:PPTA:1,2013-04-03T19:00:00Z,30.2791,-87.5561,1.386,7.42,1111122 
DISL,ioos:station:DISL:PPTA:1,2013-04-03T19:30:00Z,30.2791,-87.5561,1.46,7.55,1111122 
DISL,ioos:station:DISL:PPTA:1,2013-04-03T20:00:00Z,30.2791,-87.5561,1.392,7.18,1111122 
DISL,ioos:station:DISL:PPTA:1,2013-04-03T20:30:00Z,30.2791,-87.5561,1.334,7.57,1111122 
DISL,ioos:station:DISL:PPTA:1,2013-04-03T21:00:00Z,30.2791,-87.5561,1.667,7.57,1111122 
DISL,ioos:station:DISL:PPTA:1,2013-04-03T21:30:00Z,30.2791,-87.5561,1.866,7.67,1111122 
DISL,ioos:station:DISL:PPTA:1,2013-04-03T22:00:00Z,30.2791,-87.5561,1.529,7.43,1111122 
DISL,ioos:station:DISL:PPTA:1,2013-04-03T22:30:00Z,30.2791,-87.5561,1.524,7.6,1111122 
DISL,ioos:station:DISL:PPTA:1,2013-04-03T23:00:00Z,30.2791,-87.5561,1.401,7.48,1111122 
DISL,ioos:station:DISL:PPTA:1,2013-04-03T23:30:00Z,30.2791,-87.5561,1.367,7.39,1111122 
DISL,ioos:station:DISL:PPTA:1,2013-04-04T00:00:00Z,30.2791,-87.5561,1.432,7.22,1111122 
DISL,ioos:station:DISL:PPTA:1,2013-04-04T00:30:00Z,30.2791,-87.5561,1.479,7.27,1111122 
DISL,ioos:station:DISL:PPTA:1,2013-04-04T01:00:00Z,30.2791,-87.5561,1.486,7.29,1111122 
DISL,ioos:station:DISL:PPTA:1,2013-04-04T01:30:00Z,30.2791,-87.5561,1.468,7.45,1111122 
DISL,ioos:station:DISL:PPTA:1,2013-04-04T02:00:00Z,30.2791,-87.5561,1.387,7.32,1111122 
DISL,ioos:station:DISL:PPTA:1,2013-04-04T02:30:00Z,30.2791,-87.5561,1.388,7.25,1111122 
DISL,ioos:station:DISL:PPTA:1,2013-04-04T03:00:00Z,30.2791,-87.5561,1.371,7.18,1111122 
DISL,ioos:station:DISL:PPTA:1,2013-04-04T03:30:00Z,30.2791,-87.5561,1.331,7.14,1111122 
DISL,ioos:station:DISL:PPTA:1,2013-04-04T04:00:00Z,30.2791,-87.5561,1.352,7.28,1111122 
DISL,ioos:station:DISL:PPTA:1,2013-04-04T04:30:00Z,30.2791,-87.5561,1.319,7.28,1111122 
DISL,ioos:station:DISL:PPTA:1,2013-04-04T05:00:00Z,30.2791,-87.5561,1.416,7.17,1111122 
DISL,ioos:station:DISL:PPTA:1,2013-04-04T05:30:00Z,30.2791,-87.5561,1.318,7.25,1111122 
DISL,ioos:station:DISL:PPTA:1,2013-04-04T06:00:00Z,30.2791,-87.5561,1.278,7.19,1111122 
DISL,ioos:station:DISL:PPTA:1,2013-04-04T06:30:00Z,30.2791,-87.5561,1.307,7.24,1111122 
DISL,ioos:station:DISL:PPTA:1,2013-04-04T07:00:00Z,30.2791,-87.5561,1.297,7.32,1111122 
DISL,ioos:station:DISL:PPTA:1,2013-04-04T07:30:00Z,30.2791,-87.5561,1.328,7.51,1111122 
DISL,ioos:station:DISL:PPTA:1,2013-04-04T08:00:00Z,30.2791,-87.5561,1.273,7.41,1111122 
DISL,ioos:station:DISL:PPTA:1,2013-04-04T08:30:00Z,30.2791,-87.5561,1.27,7.42,1111122 
DISL,ioos:station:DISL:PPTA:1,2013-04-04T09:00:00Z,30.2791,-87.5561,1.235,7.38,1111122 
DISL,ioos:station:DISL:PPTA:1,2013-04-04T09:30:00Z,30.2791,-87.5561,1.218,7.28,1111122 
DISL,ioos:station:DISL:PPTA:1,2013-04-04T10:00:00Z,30.2791,-87.5561,1.257,7.33,1111122 
DISL,ioos:station:DISL:PPTA:1,2013-04-04T10:30:00Z,30.2791,-87.5561,1.269,7.31,1111122 
DISL,ioos:station:DISL:PPTA:1,2013-04-04T11:00:00Z,30.2791,-87.5561,1.302,6.65,1111122 
DISL,ioos:station:DISL:PPTA:1,2013-04-04T11:30:00Z,30.2791,-87.5561,1.316,6.99,1111122 
DISL,ioos:station:DISL:PPTA:1,2013-04-04T12:00:00Z,30.2791,-87.5561,1.26,6.63,1111122 
DISL,ioos:station:DISL:PPTA:1,2013-04-04T12:30:00Z,30.2791,-87.5561,1.208,6.27,1111122 
DISL,ioos:station:DISL:PPTA:1,2013-04-04T13:00:00Z,30.2791,-87.5561,1.262,6.53,1111122 
DISL,ioos:station:DISL:PPTA:1,2013-04-04T13:30:00Z,30.2791,-87.5561,1.276,6.83,1111122 
DISL,ioos:station:DISL:PPTA:1,2013-04-04T14:00:00Z,30.2791,-87.5561,1.304,6.39,1111122 
DISL,ioos:station:DISL:PPTA:1,2013-04-04T14:30:00Z,30.2791,-87.5561,1.336,7.36,1111122 
DISL,ioos:station:DISL:PPTA:1,2013-04-04T15:00:00Z,30.2791,-87.5561,1.273,6.91,1111122 
DISL,ioos:station:DISL:PPTA:1,2013-04-04T15:30:00Z,30.2791,-87.5561,1.33,7.15,1111122 
DISL,ioos:station:DISL:PPTA:1,2013-04-04T16:00:00Z,30.2791,-87.5561,1.322,7.29,1111122 
DISL,ioos:station:DISL:PPTA:1,2013-04-04T16:30:00Z,30.2791,-87.5561,1.338,7.21,1111122 
DISL,ioos:station:DISL:PPTA:1,2013-04-04T17:00:00Z,30.2791,-87.5561,1.336,7.03,1111122 
DISL,ioos:station:DISL:PPTA:1,2013-04-04T17:30:00Z,30.2791,-87.5561,1.368,7.12,1111122 
DISL,ioos:station:DISL:PPTA:1,2013-04-04T18:00:00Z,30.2791,-87.5561,1.366,7.25,1111122 
DISL,ioos:station:DISL:PPTA:1,2013-04-04T18:30:00Z,30.2791,-87.5561,1.379,7.23,1111122 
DISL,ioos:station:DISL:PPTA:1,2013-04-04T19:00:00Z,30.2791,-87.5561,1.381,7.24,1111122 
DISL,ioos:station:DISL:PPTA:1,2013-04-04T19:30:00Z,30.2791,-87.5561,1.4,7.23,1111122 
DISL,ioos:station:DISL:PPTA:1,2013-04-04T20:00:00Z,30.2791,-87.5561,1.425,7.28,1111122 
DISL,ioos:station:DISL:PPTA:1,2013-04-04T20:30:00Z,30.2791,-87.5561,1.431,7.43,1111122 
DISL,ioos:station:DISL:PPTA:1,2013-04-04T21:00:00Z,30.2791,-87.5561,1.439,7.47,1111122 
DISL,ioos:station:DISL:PPTA:1,2013-04-04T21:30:00Z,30.2791,-87.5561,1.416,7.55,1111122 
DISL,ioos:station:DISL:PPTA:1,2013-04-04T22:00:00Z,30.2791,-87.5561,1.416,7.52,1111122 
DISL,ioos:station:DISL:PPTA:1,2013-04-04T22:30:00Z,30.2791,-87.5561,1.411,7.45,1111122 
DISL,ioos:station:DISL:PPTA:1,2013-04-04T23:00:00Z,30.2791,-87.5561,1.424,7.2,1111122 
DISL,ioos:station:DISL:PPTA:1,2013-04-04T23:30:00Z,30.2791,-87.5561,1.438,7.34,1111122 
DISL,ioos:station:DISL:PPTA:1,2013-04-05T00:00:00Z,30.2791,-87.5561,1.434,7.14,1111122 
DISL,ioos:station:DISL:PPTA:1,2013-04-05T00:30:00Z,30.2791,-87.5561,1.441,7.25,1111122 
DISL,ioos:station:DISL:PPTA:1,2013-04-05T01:00:00Z,30.2791,-87.5561,1.439,7.14,1111122 
DISL,ioos:station:DISL:PPTA:1,2013-04-05T01:30:00Z,30.2791,-87.5561,1.404,7.37,1111122 
DISL,ioos:station:DISL:PPTA:1,2013-04-05T02:00:00Z,30.2791,-87.5561,1.392,7.34,1111122 
DISL,ioos:station:DISL:PPTA:1,2013-04-05T02:30:00Z,30.2791,-87.5561,1.355,7.54,1111122 
DISL,ioos:station:DISL:PPTA:1,2013-04-05T03:00:00Z,30.2791,-87.5561,1.34,7.4,1111122 
DISL,ioos:station:DISL:PPTA:1,2013-04-05T03:30:00Z,30.2791,-87.5561,1.326,7.29,1111122 
DISL,ioos:station:DISL:PPTA:1,2013-04-05T04:00:00Z,30.2791,-87.5561,1.302,7.5,1111122 
DISL,ioos:station:DISL:PPTA:1,2013-04-05T04:30:00Z,30.2791,-87.5561,1.297,7.42,1111122 
DISL,ioos:station:DISL:PPTA:1,2013-04-05T05:00:00Z,30.2791,-87.5561,1.307,7.57,1111122 
DISL,ioos:station:DISL:PPTA:1,2013-04-05T05:30:00Z,30.2791,-87.5561,1.293,7.38,1111122 
DISL,ioos:station:DISL:PPTA:1,2013-04-05T06:00:00Z,30.2791,-87.5561,1.274,7.59,1111122 
DISL,ioos:station:DISL:PPTA:1,2013-04-05T06:30:00Z,30.2791,-87.5561,1.24,7.46,1111122 
DISL,ioos:station:DISL:PPTA:1,2013-04-05T07:00:00Z,30.2791,-87.5561,1.228,6.92,1111122 
DISL,ioos:station:DISL:PPTA:1,2013-04-05T07:30:00Z,30.2791,-87.5561,1.213,7.29,1111122 
DISL,ioos:station:DISL:PPTA:1,2013-04-05T08:00:00Z,30.2791,-87.5561,1.198,7.15,1111122 
DISL,ioos:station:DISL:PPTA:1,2013-04-05T08:30:00Z,30.2791,-87.5561,1.188,7.24,1111122 
DISL,ioos:station:DISL:PPTA:1,2013-04-05T09:00:00Z,30.2791,-87.5561,1.192,7.41,1111122 
DISL,ioos:station:DISL:PPTA:1,2013-04-05T09:30:00Z,30.2791,-87.5561,1.164,7.03,1111122 
DISL,ioos:station:DISL:PPTA:1,2013-04-05T10:00:00Z,30.2791,-87.5561,1.143,7.39,1111122 
DISL,ioos:station:DISL:PPTA:1,2013-04-05T10:30:00Z,30.2791,-87.5561,1.14,7.36,1111122 
DISL,ioos:station:DISL:PPTA:1,2013-04-05T11:00:00Z,30.2791,-87.5561,1.156,7.3,1111122 
DISL,ioos:station:DISL:PPTA:1,2013-04-05T11:30:00Z,30.2791,-87.5561,1.136,7.15,1111122 
DISL,ioos:station:DISL:PPTA:1,2013-04-05T12:00:00Z,30.2791,-87.5561,1.136,7.28,1111122 
DISL,ioos:station:DISL:PPTA:1,2013-04-05T12:30:00Z,30.2791,-87.5561,1.142,7.06,1111122 
DISL,ioos:station:DISL:PPTA:1,2013-04-05T13:00:00Z,30.2791,-87.5561,1.161,7.13,1111122 
DISL,ioos:station:DISL:PPTA:1,2013-04-05T13:30:00Z,30.2791,-87.5561,1.159,6.73,1111122 
DISL,ioos:station:DISL:PPTA:1,2013-04-05T14:00:00Z,30.2791,-87.5561,1.158,7.02,1111122 
DISL,ioos:station:DISL:PPTA:1,2013-04-05T14:30:00Z,30.2791,-87.5561,1.144,6.79,1111122 
DISL,ioos:station:DISL:PPTA:1,2013-04-05T15:00:00Z,30.2791,-87.5561,1.155,7.48,1111122 
DISL,ioos:station:DISL:PPTA:1,2013-04-05T15:30:00Z,30.2791,-87.5561,1.129,7.27,1111122 
DISL,ioos:station:DISL:PPTA:1,2013-04-05T16:00:00Z,30.2791,-87.5561,1.152,7.48,1111122 
DISL,ioos:station:DISL:PPTA:1,2013-04-05T16:30:00Z,30.2791,-87.5561,1.127,7.48,1111122 
DISL,ioos:station:DISL:PPTA:1,2013-04-05T17:00:00Z,30.2791,-87.5561,1.162,7.21,1111122 
DISL,ioos:station:DISL:PPTA:1,2013-04-05T17:30:00Z,30.2791,-87.5561,1.152,7.03,1111122 
DISL,ioos:station:DISL:PPTA:1,2013-04-05T18:00:00Z,30.2791,-87.5561,1.148,7.19,1111122 
DISL,ioos:station:DISL:PPTA:1,2013-04-05T18:30:00Z,30.2791,-87.5561,1.16,7.26,1111122 
DISL,ioos:station:DISL:PPTA:1,2013-04-05T19:00:00Z,30.2791,-87.5561,1.143,6.86,1111122 
DISL,ioos:station:DISL:PPTA:1,2013-04-05T19:30:00Z,30.2791,-87.5561,1.18,6.5,1111122 
DISL,ioos:station:DISL:PPTA:1,2013-04-05T20:00:00Z,30.2791,-87.5561,1.176,6.37,1111122 
DISL,ioos:station:DISL:PPTA:1,2013-04-05T20:30:00Z,30.2791,-87.5561,1.197,6.45,1111122 
DISL,ioos:station:DISL:PPTA:1,2013-04-05T21:00:00Z,30.2791,-87.5561,1.178,6.36,1111122 
DISL,ioos:station:DISL:PPTA:1,2013-04-05T21:30:00Z,30.2791,-87.5561,1.214,6.85,1111122 
DISL,ioos:station:DISL:PPTA:1,2013-04-05T22:00:00Z,30.2791,-87.5561,1.223,6.75,1111122 
DISL,ioos:station:DISL:PPTA:1,2013-04-05T22:30:00Z,30.2791,-87.5561,1.214,6.87,1111122 
DISL,ioos:station:DISL:PPTA:1,2013-04-05T23:00:00Z,30.2791,-87.5561,1.226,6.95,1111122 
DISL,ioos:station:DISL:PPTA:1,2013-04-05T23:30:00Z,30.2791,-87.5561,1.212,6.95,1111122 
DISL,ioos:station:DISL:PPTA:1,2013-04-06T00:00:00Z,30.2791,-87.5561,1.219,6.78,1111122 
DISL,ioos:station:DISL:PPTA:1,2013-04-06T00:30:00Z,30.2791,-87.5561,1.234,6.67,1111122 
DISL,ioos:station:DISL:PPTA:1,2013-04-06T01:00:00Z,30.2791,-87.5561,1.228,6.89,1111122 
DISL,ioos:station:DISL:PPTA:1,2013-04-06T01:30:00Z,30.2791,-87.5561,1.223,6.6,1111122 
DISL,ioos:station:DISL:PPTA:1,2013-04-06T02:00:00Z,30.2791,-87.5561,1.218,6.75,1111122 
DISL,ioos:station:DISL:PPTA:1,2013-04-06T02:30:00Z,30.2791,-87.5561,1.196,6.51,1111122 
DISL,ioos:station:DISL:PPTA:1,2013-04-06T03:00:00Z,30.2791,-87.5561,1.18,6.7,1111122 
DISL,ioos:station:DISL:PPTA:1,2013-04-06T03:30:00Z,30.2791,-87.5561,1.184,6.88,1111122 
DISL,ioos:station:DISL:PPTA:1,2013-04-06T04:00:00Z,30.2791,-87.5561,1.169,7.37,1111122 
DISL,ioos:station:DISL:PPTA:1,2013-04-06T04:30:00Z,30.2791,-87.5561,1.158,7.34,1111122 
DISL,ioos:station:DISL:PPTA:1,2013-04-06T05:00:00Z,30.2791,-87.5561,1.15,7.28,1111122 
DISL,ioos:station:DISL:PPTA:1,2013-04-06T05:30:00Z,30.2791,-87.5561,1.138,6.79,1111122 
DISL,ioos:station:DISL:PPTA:1,2013-04-06T06:00:00Z,30.2791,-87.5561,1.133,7.23,1111122 
DISL,ioos:station:DISL:PPTA:1,2013-04-06T06:30:00Z,30.2791,-87.5561,1.131,7.19,1111122 
DISL,ioos:station:DISL:PPTA:1,2013-04-06T07:00:00Z,30.2791,-87.5561,1.132,7.38,1111122 
DISL,ioos:station:DISL:PPTA:1,2013-04-06T07:30:00Z,30.2791,-87.5561,1.091,7.37,1111122 
DISL,ioos:station:DISL:PPTA:1,2013-04-06T08:00:00Z,30.2791,-87.5561,1.092,7.52,1111122 
DISL,ioos:station:DISL:PPTA:1,2013-04-06T08:30:00Z,30.2791,-87.5561,1.101,7.51,1111122 
DISL,ioos:station:DISL:PPTA:1,2013-04-06T09:00:00Z,30.2791,-87.5561,1.098,7.59,1111122 
DISL,ioos:station:DISL:PPTA:1,2013-04-06T09:30:00Z,30.2791,-87.5561,1.09,7.47,1111122 
DISL,ioos:station:DISL:PPTA:1,2013-04-06T10:00:00Z,30.2791,-87.5561,1.111,7.35,1111122 
DISL,ioos:station:DISL:PPTA:1,2013-04-06T10:30:00Z,30.2791,-87.5561,1.093,7.19,1111122 
DISL,ioos:station:DISL:PPTA:1,2013-04-06T11:00:00Z,30.2791,-87.5561,1.083,7.39,1111122 
DISL,ioos:station:DISL:PPTA:1,2013-04-06T11:30:00Z,30.2791,-87.5561,1.107,7.65,1111122 
DISL,ioos:station:DISL:PPTA:1,2013-04-06T12:00:00Z,30.2791,-87.5561,1.109,7.14,1111122 
DISL,ioos:station:DISL:PPTA:1,2013-04-06T12:30:00Z,30.2791,-87.5561,1.122,6.92,1111122 
DISL,ioos:station:DISL:PPTA:1,2013-04-06T13:00:00Z,30.2791,-87.5561,1.11,6.91,1111122 
DISL,ioos:station:DISL:PPTA:1,2013-04-06T13:30:00Z,30.2791,-87.5561,1.116,6.75,1111122 
DISL,ioos:station:DISL:PPTA:1,2013-04-06T14:00:00Z,30.2791,-87.5561,1.115,6.59,1111122 
DISL,ioos:station:DISL:PPTA:1,2013-04-06T14:30:00Z,30.2791,-87.5561,1.121,6.45,1111122 
DISL,ioos:station:DISL:PPTA:1,2013-04-06T15:00:00Z,30.2791,-87.5561,1.133,6.62,1111122 
DISL,ioos:station:DISL:PPTA:1,2013-04-06T15:30:00Z,30.2791,-87.5561,1.113,6.72,1111122 